Tracking 20241 objects as of 26-Jan-2020
HD Live streaming from Space Station
objects crossing your sky now

COSMOS 2251 DEB

Track COSMOS 2251 DEB now!
10-day predictions


NORAD ID: 36074
Int'l Code: 1993-036AYM
Perigee: 755.8 km
Apogee: 837.9 km
Inclination: 74.0 °
Period: 100.7 minutes
Semi major axis: 7167 km
RCS: 0.0022 m2 (small)
Launch date: June 16, 1993
Source: Commonwealth of Independent States (former USSR) (CIS)
Launch site: PLESETSK MISSILE AND SPACE COMPLEX (PKMTR)

Note: This is SATELLITE DEBRIS
aabbcc
Your satellite tracking list
Your tracking list is empty




NASA's NSSDC Master Catalog

Two Line Element Set (TLE):
1 36074U 93036AYM 20025.25525932 +.00000263 +00000-0 +10874-3 0  9997
2 36074 073.9973 325.1012 0057325 195.2496 164.6929 14.30602928551027
Source of the keplerian elements: AFSPC